Theta_e
331 333 332 332 330 329 327 326 327 327 327 327 327 328 328 328 327 330 331 346 353 354 354 354 353 353 352 352 353 353 353 353 352 352 351 352 352 352 352 353 353 352 352
333 332 331 330 328 327 327 327 326 327 327 328 328 329 330 330 328 330 333 336 352 352 354 355 354 353 352 352 352 352 353 352 352 352 351 352 352 352 352 352 352 352 352
334 333 331 331 333 331 331 332 332 330 329 331 331 331 334 335 333 330 332 335 342 353 353 354 354 354 352 352 352 352 353 352 352 351 350 350 351 351 352 352 352 352 351
337 338 336 336 337 336 336 336 336 333 331 332 332 334 335 337 334 331 332 336 336 342 348 353 352 354 353 353 352 351 352 352 351 350 350 349 350 350 350 351 352 351 351
339 335 335 336 335 335 334 337 336 334 332 332 334 335 334 335 335 337 335 335 335 338 338 346 351 351 351 353 350 350 353 351 351 350 350 350 349 350 349 350 351 350 349
339 337 335 335 336 336 336 336 335 335 335 335 340 339 335 335 335 334 335 337 334 337 338 338 340 344 349 351 349 348 349 351 350 350 349 349 348 349 349 349 348 348 349
334 336 338 338 335 335 335 335 334 333 334 336 332 331 331 334 332 331 333 334 336 336 338 338 337 335 338 343 346 348 346 348 350 350 348 347 347 348 347 347 347 346 347
334 333 335 336 336 336 336 338 337 336 334 336 332 328 325 326 326 330 329 332 330 331 332 335 337 338 337 339 339 342 344 345 346 347 347 345 346 346 346 345 345 345 345
343 337 336 336 336 336 338 336 340 337 331 332 333 331 321 321 320 324 322 321 320 321 323 325 327 330 331 336 338 339 341 343 344 343 343 343 344 344 344 344 343 343 344
342 343 341 340 339 340 336 338 336 333 332 328 328 329 327 324 318 320 322 317 319 319 320 321 322 323 325 329 332 333 332 334 336 340 342 341 343 341 342 341 341 341 341
337 338 338 338 337 337 333 331 329 327 328 329 327 328 328 328 328 325 319 317 316 316 317 318 319 321 323 325 325 326 327 328 328 329 330 331 337 339 340 339 339 340 340
333 331 332 331 330 328 327 325 322 317 316 314 314 314 317 319 320 322 316 311 313 313 310 313 317 319 322 322 326 326 324 323 323 324 325 326 328 329 330 337 338 335 336
327 326 325 322 320 320 319 318 316 314 313 311 310 310 310 310 317 318 314 309 307 307 308 310 311 312 318 321 322 323 323 321 320 320 320 321 323 323 324 325 324 325 326
323 323 322 321 320 321 320 318 315 313 311 310 309 308 308 308 308 308 307 305 301 301 304 308 311 314 313 312 318 320 316 320 320 318 318 318 319 319 319 319 319 319 319
319 320 318 316 315 314 313 312 311 310 310 309 309 308 308 308 309 308 307 306 306 300 300 303 306 310 311 312 316 313 312 320 322 321 320 318 317 317 317 316 316 316 316
317 316 314 312 312 313 313 311 307 305 304 304 305 304 303 303 303 304 304 305 305 301 300 301 303 306 308 311 315 312 313 316 318 320 320 322 320 319 319 318 319 319 319
316 317 316 315 315 314 312 308 305 304 303 302 303 302 302 301 300 300 300 300 300 303 300 302 303 305 302 302 303 303 306 304 306 318 317 316 315 318 319 319 319 320 320
310 312 314 315 314 312 308 306 305 304 303 302 301 301 301 303 299 298 298 298 298 299 299 296 299 302 302 301 301 300 303 306 303 314 314 314 314 314 314 314 315 316 315
306 307 309 311 312 312 308 306 306 305 303 303 302 302 301 300 298 298 297 297 298 300 298 297 296 298 299 299 299 299 300 300 304 311 311 312 312 312 312 313 313 313 312
305 305 306 308 309 309 309 306 304 301 300 299 300 301 303 302 299 298 298 297 298 298 297 296 296 295 295 298 297 295 297 298 298 303 307 308 308 310 310 311 312 313 311
305 306 306 305 306 307 308 306 304 301 299 298 298 299 304 310 311 306 300 299 298 297 296 295 294 293 294 294 294 295 294 296 296 297 299 300 300 300 302 305 308 310 309
302 300 300 301 302 306 306 307 303 298 297 296 295 297 299 304 305 311 311 311 306 297 295 294 293 293 294 293 294 294 293 293 292 298 297 297 299 300 300 302 307 307 308
298 297 297 298 297 300 304 305 305 299 297 296 295 295 297 300 302 301 303 304 304 308 305 297 295 295 294 295 294 294 294 293 294 297 297 295 297 297 300 302 306 307 307
299 298 296 295 296 298 302 303 304 299 298 297 296 295 294 295 298 298 298 297 297 301 301 302 298 298 297 299 296 296 296 295 296 296 301 296 298 298 299 299 305 307 305
300 299 297 295 294 295 300 301 300 299 299 296 297 297 296 295 299 299 297 296 296 301 306 307 305 303 301 302 303 297 296 294 294 294 302 302 302 301 297 298 301 305 304
300 300 298 298 300 295 299 301 300 298 296 299 298 297 301 300 298 298 295 294 297 299 302 302 301 300 301 301 304 298 296 294 297 299 303 302 302 301 295 299 300 301 304
Wind_Speed
5 3 4 4 4 3 4 4 4 4 5 6 6 6 7 5 6 3 3 14 16 16 16 17 17 17 16 15 13 13 13 12 12 11 11 11 11 12 13 13 14 14 13
4 4 4 5 4 4 4 4 4 5 6 4 6 5 8 6 6 5 4 4 13 12 12 15 15 16 16 15 15 14 13 13 13 13 12 13 13 13 13 14 14 14 14
6 6 5 5 6 5 6 4 5 4 4 5 6 4 5 6 5 6 4 2 3 11 12 14 15 16 16 15 15 15 14 14 14 14 14 14 14 15 15 16 16 16 16
8 6 5 6 6 4 4 4 3 4 4 3 2 4 1 3 2 3 3 3 3 3 9 14 13 13 15 16 16 17 15 15 15 15 15 16 15 15 16 17 17 17 16
8 6 5 5 5 4 4 4 4 3 3 4 4 5 4 3 3 2 3 4 6 5 4 10 12 13 14 16 17 17 17 17 16 16 17 17 17 16 16 17 17 17 17
7 6 6 7 5 4 4 3 3 1 3 4 3 3 4 4 3 3 4 3 3 5 4 4 4 4 12 15 19 20 20 19 18 17 18 18 18 18 17 17 16 16 16
6 6 6 7 4 5 6 5 3 4 3 2 0 3 3 4 2 2 3 3 4 1 1 2 2 3 4 15 19 21 21 21 19 19 19 19 19 19 18 17 16 15 14
6 6 7 6 5 4 6 9 4 1 2 3 2 1 3 4 3 3 3 3 6 6 7 8 7 6 4 4 8 13 17 20 22 23 21 20 21 20 19 19 18 17 15
6 5 7 6 4 6 7 2 3 4 3 3 3 2 1 3 1 2 7 5 5 5 5 6 8 8 8 6 8 10 14 17 19 19 20 20 24 23 22 19 17 15 15
8 10 6 3 2 3 4 4 4 3 2 3 2 1 1 2 2 2 3 4 4 6 5 5 5 7 7 5 12 19 20 18 19 16 12 16 18 18 23 19 18 15 16
10 10 9 9 8 6 6 7 5 5 4 3 2 2 1 0 0 1 1 2 5 5 4 4 5 5 7 7 5 11 16 17 19 21 20 21 22 12 22 24 23 18 17
6 9 10 9 8 7 7 7 8 8 5 6 4 6 3 2 2 2 3 3 3 2 3 4 5 4 4 5 9 14 15 16 16 17 18 21 23 19 32 8 21 13 10
5 8 7 9 7 9 8 8 9 8 6 5 5 4 4 4 2 2 3 2 3 2 2 2 3 4 4 4 5 10 13 14 14 14 14 15 16 17 19 19 20 18 17
5 6 8 9 11 10 9 8 7 6 6 6 7 6 4 4 4 3 2 3 2 4 2 2 2 3 4 4 7 11 6 11 10 9 10 11 12 13 14 15 15 13 16
6 8 8 9 9 9 8 7 6 6 7 6 6 6 5 4 4 4 3 2 3 2 4 4 3 4 4 4 6 4 5 10 12 11 7 5 4 3 3 5 6 4 5
8 8 7 7 8 8 8 8 7 6 9 6 5 8 6 4 5 4 4 3 3 3 4 2 3 2 5 4 8 6 6 12 13 15 13 9 8 8 8 8 9 10 10
7 7 6 6 6 7 7 8 8 7 10 7 7 7 8 6 5 5 4 4 4 2 4 3 3 4 5 5 6 6 6 6 6 15 15 14 15 9 8 10 12 12 11
6 6 6 6 7 7 7 8 8 6 8 8 6 7 7 5 7 6 5 6 5 5 4 4 3 5 5 3 4 4 5 5 5 10 14 14 12 11 9 8 8 9 9
7 8 7 6 6 7 8 7 7 7 7 6 6 6 6 7 7 5 6 6 5 4 5 3 3 2 2 3 4 4 4 5 3 11 12 12 13 12 12 13 11 9 8
7 7 7 7 7 6 6 6 6 7 7 6 6 6 6 6 5 6 6 6 4 5 4 4 3 3 2 3 2 3 5 3 4 4 9 8 10 12 11 12 11 11 11
7 7 8 7 6 6 4 6 6 7 7 6 6 6 6 7 7 7 3 4 5 4 3 3 3 3 3 3 3 3 3 4 3 3 5 4 4 5 5 10 10 13 12
7 7 7 7 7 4 8 10 7 7 6 6 6 6 6 10 8 11 9 9 5 3 3 2 2 2 3 2 3 3 3 4 4 2 4 4 4 6 4 5 14 13 12
6 7 6 6 6 4 5 7 9 5 5 6 6 6 6 5 8 6 9 9 9 8 3 2 2 1 2 2 2 4 2 2 3 4 3 4 3 5 4 5 12 11 9
5 4 5 5 5 4 2 7 8 6 5 5 4 4 4 5 5 6 6 7 6 5 6 3 0 3 3 4 3 1 2 5 4 3 2 3 3 5 5 4 9 10 12
3 4 4 5 5 5 7 3 4 3 4 3 2 3 3 4 6 5 7 7 7 6 7 7 6 6 7 6 2 1 3 4 3 3 2 4 3 5 3 4 5 11 11
3 4 3 1 3 4 8 3 3 1 1 2 2 4 7 5 6 5 5 4 5 5 6 6 6 7 7 7 7 2 1 1 2 2 1 4 3 3 4 3 4 4 6
Wind_Direction
227 226 234 218 234 241 237 242 253 267 275 277 282 281 292 283 272 231 231 231 215 215 217 223 222 221 217 215 214 212 212 209 211 214 218 218 216 214 213 208 205 206 205
229 228 240 227 234 226 241 235 243 249 257 264 283 286 275 265 256 225 219 235 223 230 235 239 235 234 229 226 223 222 220 217 215 213 215 217 218 221 217 216 211 210 211
222 219 217 226 234 221 229 239 257 257 260 261 268 290 292 308 266 221 178 207 252 230 236 241 232 237 238 233 235 232 228 225 229 223 217 219 218 219 221 222 219 214 211
216 217 216 224 227 216 209 220 238 262 253 238 275 284 317 328 311 198 195 186 203 230 242 244 247 238 243 243 237 236 233 229 227 232 232 224 222 222 223 223 223 220 217
224 213 227 243 229 220 206 207 208 194 234 241 220 211 230 251 287 67 180 207 233 231 229 233 231 244 246 248 250 250 236 230 226 228 231 232 230 226 227 227 223 221 219
223 212 229 237 217 242 260 238 237 215 239 263 281 264 222 226 229 244 268 286 263 258 226 223 251 251 243 249 253 255 253 246 232 227 228 227 229 228 227 225 224 220 218
243 226 229 237 199 204 257 241 204 210 264 236 301 306 284 243 224 214 220 262 274 112 127 227 259 263 278 277 259 253 254 258 256 244 236 228 223 225 225 225 222 220 218
255 236 233 239 198 220 232 239 197 202 236 186 208 170 296 320 53 68 79 55 19 13 20 8 353 327 310 287 273 267 268 262 265 259 246 238 226 219 222 226 221 214 216
338 261 242 235 205 233 247 191 177 178 268 269 234 240 237 249 22 55 51 46 42 34 15 2 4 353 347 327 332 318 295 283 269 266 267 271 248 225 216 221 225 224 222
16 16 13 338 60 94 62 55 26 18 300 278 333 47 8 161 212 167 99 71 66 49 24 19 9 3 349 14 33 37 37 28 30 16 328 306 284 255 231 230 232 222 225
21 30 35 43 45 40 50 55 50 36 350 37 352 10 52 180 290 354 131 109 66 35 25 23 14 17 22 31 37 32 35 33 37 36 37 26 24 321 225 220 228 227 234
27 25 35 43 27 52 38 56 48 54 51 61 43 40 17 0 12 16 102 59 73 41 15 12 19 14 14 24 42 43 40 38 36 36 36 39 36 34 38 238 220 234 228
32 29 41 55 48 56 58 64 66 59 44 57 49 46 38 34 2 45 76 84 81 17 349 354 17 8 2 16 31 29 28 28 28 31 34 37 37 39 41 44 41 32 48
61 55 62 66 65 65 60 58 55 52 50 48 53 45 45 31 38 33 99 126 62 25 14 2 350 9 7 358 6 10 355 5 11 15 23 29 38 44 56 51 50 28 39
67 67 65 70 67 67 66 64 59 51 53 37 37 42 43 18 30 34 53 79 130 109 12 356 10 2 347 335 327 343 339 333 339 330 320 322 333 5 48 72 70 10 333
75 72 64 69 68 66 65 64 54 31 58 31 28 46 34 14 27 24 33 45 68 120 92 343 354 339 343 357 10 12 5 18 8 18 16 329 276 261 261 267 270 267 260
67 64 64 62 67 69 61 69 60 46 61 47 32 44 40 22 32 21 22 34 39 69 103 12 25 7 36 23 6 4 8 8 352 21 23 18 21 358 299 288 282 276 270
53 64 68 69 75 74 70 75 76 55 65 58 41 50 37 33 36 25 29 33 38 30 100 90 346 8 39 3 337 360 347 350 347 18 12 10 7 9 14 355 337 323 310
49 43 49 59 71 69 74 65 72 70 59 49 45 50 38 48 40 30 31 37 30 38 45 86 20 326 351 18 342 332 333 334 339 21 5 357 356 359 3 359 357 350 340
74 62 52 57 58 75 83 77 72 62 60 46 36 39 40 58 68 59 50 40 41 50 40 49 29 2 7 326 345 339 342 338 329 339 346 351 360 2 359 2 350 353 341
64 71 71 52 52 66 76 79 64 67 56 45 35 28 28 53 65 81 75 40 54 49 42 46 32 9 357 349 0 309 311 317 318 332 322 334 353 346 340 345 336 336 330
65 69 60 68 61 63 82 79 83 72 58 55 44 26 24 32 32 50 52 52 64 71 36 54 3 6 330 303 329 339 334 356 333 347 341 318 5 334 323 332 333 335 333
83 77 71 77 75 68 96 110 98 86 81 69 57 35 29 20 32 30 22 35 29 41 83 147 42 327 317 280 315 323 328 299 281 300 4 313 348 323 321 331 340 354 4
84 79 65 55 64 29 327 126 117 113 91 81 82 66 46 24 21 45 26 22 10 26 13 20 100 294 243 298 241 233 288 291 283 295 328 313 335 325 324 326 335 353 1
80 66 54 43 44 13 24 153 98 54 82 85 27 15 33 4 355 46 48 18 359 9 353 15 34 14 4 350 342 18 353 8 328 300 317 335 327 327 313 303 322 345 347
109 102 96 95 88 51 26 110 81 67 98 327 332 345 322 299 344 26 58 38 359 350 348 358 -0 357 4 354 15 37 297 327 281 296 321 348 311 351 326 315 311 325 344